O3B FM10

Last updated on Thu Dec 28 2023 00:03:05 GMT+0000 (Coordinated Universal Time)

1 40348U 14083A 23361.45305701 -.00000024 00000+0 00000+0 0 9990 2 40348 0.0459 3.6215 0002703 272.6543 83.6918 5.00115342164734
UTC large
Height (km)
Speed (km/s)
/
Latitude / Longitude
Inclination (degrees)
Orbital Period (minutes)
Azimuth
Elevation
Range (km)
Doppler Factor

Next 0 passes for location: London (51.5072 / 0.1276)

Sorry there are no passes over London.